AAL1653 KCLT-KDCA

Flight info

Callsign AAL1653
Flight time N/A
Altitude 35000
Route KILNS5 AUDII DCT WAVES CAPSS4
Aircraft B738/M-VGDW/C

Departure

Time N/A
Airport Charlotte Douglas International Airport (KCLT)

Arrival

Time 2026-05-05 21:02
Airport Ronald Reagan Washington National Airport (KDCA)
Time Latitude Longitude Altitude Speed Heading
2026-05-05 20:21 35.68265 -79.34182 29640 ft 505 kts 61°
2026-05-05 20:22 35.69806 -79.30328 30222 ft 496 kts 54°
2026-05-05 20:22 35.71646 -79.26801 30824 ft 486 kts 47°
2026-05-05 20:22 35.73681 -79.23629 31408 ft 475 kts 41°
2026-05-05 20:22 35.75942 -79.20741 31977 ft 464 kts 34°
2026-05-05 20:23 35.78386 -79.18186 32403 ft 457 kts 28°
2026-05-05 20:23 35.80961 -79.15913 32844 ft 451 kts 25°
2026-05-05 20:23 35.83576 -79.13779 33257 ft 448 kts 24°
2026-05-05 20:23 35.86171 -79.11691 33724 ft 445 kts 24°
2026-05-05 20:24 35.88755 -79.09573 34114 ft 445 kts 24°
2026-05-05 20:24 35.91316 -79.07417 34470 ft 445 kts 25°
2026-05-05 20:24 35.93839 -79.05227 34867 ft 445 kts 25°
2026-05-05 20:24 35.96376 -79.02981 35020 ft 447 kts 26°
2026-05-05 20:25 35.98877 -79.00729 35019 ft 446 kts 26°
2026-05-05 20:25 36.03865 -78.96165 35016 ft 444 kts 27°
2026-05-05 20:26 36.08831 -78.91585 35015 ft 446 kts 27°
2026-05-05 20:26 36.13831 -78.86967 35016 ft 446 kts 27°
2026-05-05 20:27 36.18833 -78.82334 35014 ft 445 kts 27°
2026-05-05 20:27 36.23772 -78.77699 35012 ft 450 kts 28°
2026-05-05 20:28 36.28708 -78.72944 34999 ft 447 kts 28°
2026-05-05 20:28 36.33598 -78.68195 34994 ft 447 kts 28°
2026-05-05 20:29 36.38487 -78.63451 35003 ft 446 kts 28°
2026-05-05 20:29 36.43401 -78.58689 34996 ft 448 kts 28°
2026-05-05 20:30 36.48304 -78.53933 34986 ft 446 kts 28°
2026-05-05 20:30 36.53204 -78.49183 34991 ft 450 kts 28°
2026-05-05 20:31 36.58149 -78.44373 34984 ft 448 kts 28°
2026-05-05 20:31 36.63068 -78.39579 34985 ft 447 kts 28°
2026-05-05 20:32 36.67984 -78.34790 34985 ft 451 kts 29°
2026-05-05 20:32 36.73187 -78.29707 34996 ft 452 kts 28°
2026-05-05 20:33 36.78284 -78.24718 34993 ft 448 kts 28°
2026-05-05 20:33 36.83330 -78.19764 34991 ft 449 kts 28°
2026-05-05 20:34 36.88240 -78.14946 34990 ft 452 kts 29°
2026-05-05 20:34 36.93203 -78.10064 34982 ft 454 kts 28°
2026-05-05 20:35 36.98130 -78.05201 34984 ft 450 kts 29°
2026-05-05 20:35 37.03072 -78.00324 34986 ft 453 kts 29°
2026-05-05 20:35 37.05574 -77.97856 34850 ft 456 kts 29°
2026-05-05 20:36 37.08039 -77.95418 34419 ft 452 kts 29°
2026-05-05 20:36 37.10475 -77.92999 33857 ft 449 kts 28°
2026-05-05 20:36 37.12923 -77.90571 33161 ft 449 kts 29°
2026-05-05 20:36 37.15379 -77.88139 32412 ft 451 kts 30°
2026-05-05 20:37 37.17885 -77.85658 31612 ft 453 kts 31°
2026-05-05 20:37 37.19605 -77.83955 31035 ft 455 kts 32°
2026-05-05 20:37 37.22895 -77.80693 29914 ft 459 kts 33°
2026-05-05 20:37 37.25391 -77.78214 29202 ft 458 kts 34°
2026-05-05 20:38 37.27871 -77.75739 28733 ft 452 kts 34°
2026-05-05 20:38 37.30328 -77.73282 28197 ft 448 kts 34°
2026-05-05 20:38 37.32740 -77.70869 27654 ft 444 kts 34°
2026-05-05 20:38 37.35133 -77.68475 27110 ft 441 kts 35°
2026-05-05 20:39 37.37526 -77.66079 26560 ft 438 kts 35°
2026-05-05 20:39 37.39883 -77.63720 26012 ft 435 kts 35°
2026-05-05 20:39 37.42229 -77.61371 25467 ft 432 kts 35°
2026-05-05 20:39 37.44587 -77.59007 24922 ft 429 kts 36°
2026-05-05 20:40 37.46901 -77.56686 24355 ft 426 kts 36°
2026-05-05 20:40 37.49195 -77.54384 23803 ft 423 kts 36°
2026-05-05 20:40 37.51490 -77.52078 23254 ft 420 kts 37°
2026-05-05 20:40 37.53771 -77.49786 22724 ft 417 kts 37°
2026-05-05 20:41 37.56020 -77.47571 22191 ft 414 kts 34°
2026-05-05 20:41 37.58393 -77.45561 21954 ft 408 kts 27°
2026-05-05 20:41 37.60954 -77.44067 21769 ft 403 kts 17°
2026-05-05 20:41 37.63611 -77.43013 21516 ft 400 kts 12°
2026-05-05 20:42 37.66302 -77.42154 21257 ft 396 kts 10°
2026-05-05 20:42 37.68957 -77.41388 21004 ft 394 kts
2026-05-05 20:42 37.71645 -77.40630 20745 ft 392 kts
2026-05-05 20:42 37.74276 -77.39880 20494 ft 391 kts
2026-05-05 20:43 37.76929 -77.39105 20241 ft 390 kts
2026-05-05 20:43 37.79583 -77.38313 19983 ft 389 kts
2026-05-05 20:43 37.82197 -77.37521 19740 ft 386 kts
2026-05-05 20:43 37.84786 -77.36729 19489 ft 384 kts 10°
2026-05-05 20:44 37.87363 -77.35935 19238 ft 381 kts 10°
2026-05-05 20:44 37.89955 -77.35136 18955 ft 380 kts
2026-05-05 20:44 37.92504 -77.34349 18524 ft 377 kts 10°
2026-05-05 20:44 37.95046 -77.33567 18020 ft 374 kts 10°
2026-05-05 20:45 38.00059 -77.32027 17005 ft 369 kts 10°
2026-05-05 20:45 38.02539 -77.31264 16502 ft 367 kts 10°
2026-05-05 20:45 38.05009 -77.30502 15971 ft 366 kts 10°
2026-05-05 20:46 38.07482 -77.29739 15509 ft 362 kts
2026-05-05 20:46 38.09920 -77.28980 15071 ft 359 kts
2026-05-05 20:46 38.12331 -77.28223 14584 ft 357 kts
2026-05-05 20:46 38.14735 -77.27466 14091 ft 355 kts
2026-05-05 20:47 38.17095 -77.26722 13600 ft 354 kts
2026-05-05 20:47 38.19491 -77.25966 13122 ft 352 kts
2026-05-05 20:47 38.21836 -77.25188 13010 ft 350 kts 11°
2026-05-05 20:47 38.24224 -77.24309 13010 ft 360 kts 12°
2026-05-05 20:48 38.26609 -77.23389 12996 ft 359 kts 13°
2026-05-05 20:48 38.28979 -77.22463 12626 ft 357 kts 13°
2026-05-05 20:48 38.31364 -77.21537 12150 ft 355 kts 12°
2026-05-05 20:48 38.33704 -77.20637 11666 ft 354 kts 13°
2026-05-05 20:49 38.36074 -77.19733 11173 ft 353 kts 13°
2026-05-05 20:49 38.38412 -77.18840 11012 ft 348 kts 13°
2026-05-05 20:49 38.40748 -77.17944 11010 ft 355 kts 13°
2026-05-05 20:49 38.43102 -77.17038 11009 ft 354 kts 13°
2026-05-05 20:50 38.45461 -77.16125 11009 ft 353 kts 13°
2026-05-05 20:50 38.47049 -77.15510 10999 ft 353 kts 13°
2026-05-05 20:50 38.50173 -77.14298 10537 ft 350 kts 13°
2026-05-05 20:50 38.52450 -77.13415 10321 ft 340 kts 13°
2026-05-05 20:51 38.54672 -77.12549 10214 ft 327 kts 13°
2026-05-05 20:51 38.56812 -77.11715 10100 ft 316 kts 13°
2026-05-05 20:51 38.58885 -77.10911 9995 ft 305 kts 13°
2026-05-05 20:51 38.60920 -77.10127 9998 ft 304 kts 13°
2026-05-05 20:52 38.62946 -77.09354 9909 ft 302 kts 13°
2026-05-05 20:52 38.64927 -77.08594 9572 ft 302 kts 13°
2026-05-05 20:52 38.66945 -77.07819 9172 ft 303 kts 13°
2026-05-05 20:52 38.68993 -77.07124 8782 ft 301 kts
2026-05-05 20:53 38.70998 -77.06763 8414 ft 298 kts
2026-05-05 20:53 38.73059 -77.06565 8034 ft 297 kts 359°
2026-05-05 20:53 38.75111 -77.06460 7662 ft 295 kts 353°
2026-05-05 20:53 38.77120 -77.06845 7292 ft 287 kts 336°
2026-05-05 20:54 38.78880 -77.07941 6943 ft 278 kts 321°
2026-05-05 20:54 38.80476 -77.09316 6585 ft 275 kts 319°
2026-05-05 20:54 38.82031 -77.10709 6240 ft 275 kts 319°
2026-05-05 20:54 38.83522 -77.12180 5987 ft 267 kts 311°
2026-05-05 20:55 38.84874 -77.13793 5659 ft 265 kts 309°
2026-05-05 20:55 38.86190 -77.15442 5268 ft 266 kts 309°
2026-05-05 20:55 38.87513 -77.17107 4916 ft 266 kts 309°
2026-05-05 20:55 38.88837 -77.18765 4595 ft 265 kts 309°
2026-05-05 20:56 38.90154 -77.20406 4259 ft 264 kts 310°
2026-05-05 20:56 38.91453 -77.22021 4067 ft 257 kts 309°
2026-05-05 20:56 38.92732 -77.23576 3867 ft 254 kts 314°
2026-05-05 20:56 38.94297 -77.24655 3560 ft 263 kts 345°
2026-05-05 20:57 38.96094 -77.24522 3488 ft 258 kts 18°
2026-05-05 20:57 38.97588 -77.23360 3410 ft 245 kts 44°
2026-05-05 20:57 38.98641 -77.21730 3318 ft 229 kts 63°
2026-05-05 20:57 38.99099 -77.19902 3237 ft 207 kts 94°
2026-05-05 20:58 38.98937 -77.18175 3178 ft 183 kts 113°
2026-05-05 20:58 38.98507 -77.16702 3115 ft 175 kts 128°
2026-05-05 20:58 38.97747 -77.15521 3061 ft 166 kts 151°
2026-05-05 20:58 38.96753 -77.14957 3009 ft 157 kts 173°
2026-05-05 20:59 38.95696 -77.14467 2833 ft 165 kts 158°
2026-05-05 20:59 38.94809 -77.13535 2614 ft 167 kts 144°
2026-05-05 20:59 38.93971 -77.12507 2384 ft 165 kts 148°
2026-05-05 20:59 38.93073 -77.11576 2004 ft 167 kts 154°
2026-05-05 21:00 38.92144 -77.10814 1978 ft 146 kts 157°
2026-05-05 21:00 38.91277 -77.10121 1993 ft 147 kts 155°
2026-05-05 21:00 38.90607 -77.09102 1981 ft 160 kts 120°
2026-05-05 21:00 38.90226 -77.07739 1777 ft 169 kts 122°
2026-05-05 21:01 38.89653 -77.06495 1436 ft 153 kts 137°
2026-05-05 21:01 38.88963 -77.05503 1088 ft 146 kts 143°
2026-05-05 21:01 38.88208 -77.04672 747 ft 141 kts 151°
2026-05-05 21:01 38.87382 -77.04098 400 ft 134 kts 166°
2026-05-05 21:02 38.86485 -77.03896 94 ft 128 kts 179°
2026-05-05 21:02 38.85651 -77.03827 23 ft 95 kts 175°
2026-05-05 21:02 38.85282 -77.03790 23 ft 23 kts 175°
2026-05-05 21:02 38.85160 -77.03837 26 ft 10 kts 249°
2026-05-05 21:03 38.85153 -77.03909 26 ft 5 kts 264°